Regional Weather Roundup
Issued by NWS Charleston, SC

Current Version | Previous Version | Graphics & Text | Print | Product List | Glossary On
Versions: 1 2 3 4 5 6 7 8 9 10 11 12 13 14 15 16 17 18 19 20 21 22 23 24 25 26 27 28 29 30 31 32 33 34 35 36 37 38 39 40 41 42 43 44 45 46 47 48 49 50
000
ASUS42 KCHS 231627
RWRCHS

REGIONAL WEATHER ROUNDUP
NATIONAL WEATHER SERVICE CHARLESTON SC
1200 PM EDT MON OCT 23 2017

NOTE: "FAIR" INDICATES FEW OR NO CLOUDS BELOW 12,000 FEET WITH NO
SIGNIFICANT WEATHER AND/OR OBSTRUCTIONS TO VISIBILITY.

NOT ALL STATIONS ARE QUALITY CONTROLLED. USE DATA WITH CAUTION...
ESPECIALLY DEWPOINT OBSERVATIONS.

SCZ027-030-031-034>040-042>050-231700-
...SOUTHEAST SOUTH CAROLINA...

CITY           SKY/WX    TMP DP  RH WIND       PRES   REMARKS
N CHARLESTON   CLOUDY    77  74  90 SE13      30.04F
WATERFRONT PRK NOT AVBL
JOHNS ISLAND   PTSUNNY   79  75  89 SE13G20   30.03F
PINOPOLIS        N/A     73  72  94 VRB3      29.96F
MONCKS CORNER  LGT RAIN  72  70  94 SW8       30.03F
SUMMERVILLE    PTSUNNY   75  70  83 SE9       30.03F
BEAUFORT MCAS  CLOUDY    78  74  87 SE8       30.01F
BEAUFORT ARPT  PTSUNNY   77  72  83 S7G17     30.00F
HILTON HEAD IS CLOUDY    77  73  88 S12       30.03F
WALTERBORO     CLOUDY    77  72  83 SE15G22   30.01F
ALLENDALE        N/A     79  73  83 S14         N/A

...SOUTHERN MIDLANDS AND PEE DEE...

CITY           SKY/WX    TMP DP  RH WIND       PRES   REMARKS
GEORGETOWN     CLOUDY    77  68  73 SE13      30.07F
KINGSTREE      DRIZZLE   73  68  83 SE9G17    30.04F
ORANGEBURG     CLOUDY    75  71  87 SE10      29.99F
BARNWELL         N/A     81  75  83 SE12G17   29.96F
AIKEN          CLOUDY    73  70  88 S13G23    29.97F
MANNING        CLOUDY    73  72  94 MISG      30.02F
COLUMBIA       CLOUDY    76  73  91 SE20      29.97F
SUMTER         PTSUNNY   77  68  73 SE21G30   29.98F
FLORENCE       CLOUDY    75  70  84 SE16G22   30.05F
MYRTLE BEACH   CLOUDY    79  70  74 S16       30.09F
N MYRTLE BEACH PTSUNNY   79  69  71 S12G18    30.09F

$$

GAZ063-065-086>088-099>101-113>116-118-119-134>141-150-231700-
...SOUTHEAST GEORGIA...

CITY           SKY/WX    TMP DP  RH WIND       PRES   REMARKS
SAVANNAH ARPT  CLOUDY    81  74  79 S18G28    29.99F
HUNTER AAF     CLOUDY    79  74  83 S10       29.97F
FORT STEWART   CLOUDY    79  72  78 S10       29.96F
STATESBORO     CLOUDY    79  70  72 S12G20    29.96F
SYLVANIA       CLOUDY    79  75  87 S9G21     29.98F
CLAXTON        CLOUDY    80  74  82 SE3G21    29.97F HAZE

...CSRA...CENTRAL AND FAR SOUTHEAST GEORGIA...

CITY           SKY/WX    TMP DP  RH WIND       PRES   REMARKS
THOMSON        HAZE      76  71  86 SW12G20   29.93F VSB 1/4
AUGUSTA-BUSH   LGT RAIN  79  72  79 S17G24    29.92F
AUGUSTA-DANIEL CLOUDY    77  72  84 S13G21    29.93F
SWAINSBORO     RAIN      75  75 100 S15G23    29.95F
VIDALIA        HVY RAIN  77  73  88 S6        29.96F
EASTMAN        PTSUNNY   78  65  63 S16G22    29.95S
HAZLEHURST     PTSUNNY   75  72  91 SW15G24   29.94F
ALMA           LGT RAIN  76  72  87 S16G24    29.96S FOG
WAYCROSS       LGT RAIN  76  73  91 S12G18    29.98S
JESUP          NOT AVBL
BAXLEY         LGT RAIN  73  73 100 S15G21    29.95F
BRUNSWICK      CLOUDY    79  72  78 S16G22    30.00F
SAINT SIMONS   CLOUDY    78  75  90 S8        30.01F

$$

SCZ027-028-034-036>038-045-046-048>050-GAZ119-141-231700-
...LAKE AND SUPPLEMENTAL COASTAL OBSERVATIONS...

STATION/POSITION TIME  TEMP    WIND        PRES    WAVE   SWELL
                       AIR SEA DIR/SP/G            HT/PER HT/PER/DIR
                 (UTC) (F)     (DEG/KT/KT) (MB)    (FT/S) (FT/S/D)
WINYAH BAY       1545   77     150/ 13     1018.0F
LAKE MURRAY      1620   74     140/ 14/ 21 1013.2
ACE BASIN NERRS  1545   77     130/  6     1017.0F
FORT PULASKI     1600   78 74  170/  8/ 12 1016.5
SAPELO ISLAND    NOT AVBL

$$

ANZ835-935-AMZ111-154-330-350-352-354-370-450-454-472-231700-
...C-MAN AND BUOY OBSERVATIONS...

STATION/POSITION TIME  TEMP    WIND        PRES    WAVE   SWELL
                       AIR SEA DIR/SP/G            HT/PER HT/PER/DIR
                 (UTC) (F)     (DEG/KT/KT) (MB)    (FT/S) (FT/S/D)
BUOY 41004       1610   79 80  150/ 19/ 23 1017.2
BUOY 41008       1550   78 77  150/ 16/ 17 1015.9F   6/ 8   3/ 90/ 8
FOLLY BEACH CMAN 1600   77     150/ 20/ 22 1017.7F
CAPERS NEARSHORE 1608   75 74  160/ 16/ 21 1016.7F
FRIPP NEARSHORE  1608   76     160/ 12/ 16   N/A


STATION/POSITION TIME  TEMP    WIND        PRES    WAVE   SWELL
                       AIR SEA DIR/SP/G            HT/PER HT/PER/DIR
                 (UTC) (F)     (DEG/KT/KT) (MB)    (FT/S) (FT/S/D)
5E ST. MARYS GA  1600      77                N/A     5/ 6
FRYING PAN BUOY  1610   78 78  150/ 17/ 21 1019.1
BUOY 41025       1550   78 81  130/ 19/ 23 1021.0F   3/ 8   2/ 80/ 8
CAPE LOOKOUT NC  1600   76     140/ 10/ 12 1020.3F
BUOY 41002       1550   78 80  120/ 16/ 19 1021.5F   4/ 9   2/ 90/ 9
BUOY 41010       NOT AVBL
ST AUGUSTINE FL  1600   79 78  170/ 16/ 18 1016.7F


$$




USA.gov is the U.S. government's official web portal to all federal, state and local government web resources and services.